QPF
0.00 0.00 0.00 0.00 0.01 0.04 0.06 0.03 0.02 0.02 0.01 0.02 0.03 0.01 0.02 0.02 0.02 0.06 0.13 0.11 0.03 0.01 0.00 0.00 0.00 0.00 0.00 0.00 0.00 0.00 0.00 0.01 0.01 0.01 0.01 0.02 0.03 0.03 0.02 0.02 0.01 0.02 0.02 0.03 0.03 0.04 0.05 0.06 0.07
0.00 0.00 0.00 0.00 0.03 0.05 0.07 0.03 0.02 0.02 0.02 0.02 0.03 0.02 0.01 0.01 0.01 0.03 0.09 0.05 0.02 0.01 0.01 0.00 0.00 0.00 0.00 0.00 0.00 0.00 0.00 0.00 0.01 0.01 0.01 0.01 0.01 0.02 0.01 0.02 0.02 0.02 0.03 0.02 0.03 0.05 0.07 0.07 0.06
0.00 0.00 0.00 0.00 0.03 0.04 0.05 0.04 0.02 0.03 0.03 0.02 0.01 0.02 0.01 0.01 0.01 0.02 0.02 0.02 0.01 0.02 0.02 0.02 0.02 0.00 0.00 0.00 0.00 0.00 0.00 0.00 0.00 0.01 0.01 0.01 0.01 0.01 0.01 0.01 0.02 0.03 0.04 0.04 0.03 0.05 0.07 0.07 0.05
0.00 0.00 0.01 0.01 0.02 0.02 0.03 0.05 0.04 0.03 0.03 0.02 0.01 0.01 0.01 0.01 0.01 0.02 0.01 0.01 0.01 0.02 0.02 0.02 0.02 0.01 0.00 0.00 0.00 0.00 0.00 0.00 0.00 0.00 0.01 0.01 0.00 0.01 0.01 0.01 0.02 0.04 0.05 0.05 0.05 0.06 0.09 0.07 0.06
0.00 0.00 0.01 0.01 0.02 0.04 0.04 0.04 0.05 0.04 0.02 0.03 0.01 0.02 0.02 0.03 0.02 0.03 0.01 0.00 0.01 0.02 0.02 0.01 0.02 0.01 0.01 0.01 0.01 0.01 0.01 0.00 0.00 0.00 0.00 0.01 0.01 0.01 0.01 0.01 0.02 0.03 0.03 0.04 0.06 0.08 0.13 0.09 0.08
0.00 0.00 0.02 0.01 0.01 0.04 0.04 0.03 0.04 0.04 0.04 0.03 0.02 0.02 0.04 0.06 0.04 0.02 0.01 0.01 0.01 0.02 0.02 0.02 0.04 0.02 0.01 0.02 0.02 0.03 0.02 0.01 0.01 0.00 0.01 0.01 0.01 0.01 0.01 0.01 0.02 0.02 0.03 0.04 0.07 0.07 0.09 0.08 0.07
0.00 0.00 0.01 0.02 0.01 0.03 0.04 0.02 0.01 0.02 0.03 0.03 0.03 0.03 0.04 0.05 0.03 0.02 0.01 0.01 0.01 0.02 0.02 0.01 0.01 0.02 0.02 0.02 0.02 0.06 0.04 0.02 0.01 0.01 0.01 0.01 0.02 0.02 0.02 0.02 0.02 0.02 0.01 0.02 0.03 0.04 0.05 0.06 0.05
0.00 0.01 0.01 0.02 0.01 0.01 0.03 0.03 0.01 0.01 0.01 0.02 0.03 0.03 0.02 0.03 0.03 0.01 0.01 0.01 0.01 0.01 0.01 0.02 0.01 0.01 0.01 0.01 0.03 0.10 0.07 0.03 0.02 0.01 0.01 0.01 0.02 0.02 0.01 0.01 0.01 0.02 0.01 0.01 0.02 0.02 0.03 0.04 0.04
0.00 0.01 0.00 0.01 0.01 0.02 0.02 0.03 0.01 0.02 0.01 0.03 0.03 0.03 0.03 0.02 0.02 0.02 0.01 0.01 0.02 0.01 0.01 0.01 0.02 0.01 0.01 0.02 0.03 0.11 0.07 0.04 0.02 0.02 0.01 0.01 0.01 0.00 0.01 0.01 0.02 0.02 0.02 0.01 0.01 0.01 0.02 0.03 0.04
0.00 0.01 0.01 0.01 0.01 0.01 0.01 0.01 0.01 0.02 0.05 0.06 0.06 0.04 0.02 0.01 0.01 0.01 0.01 0.01 0.01 0.01 0.01 0.02 0.03 0.03 0.03 0.04 0.05 0.04 0.03 0.03 0.01 0.01 0.01 0.01 0.01 0.00 0.01 0.02 0.03 0.03 0.02 0.02 0.02 0.02 0.02 0.02 0.02
0.01 0.01 0.01 0.01 0.01 0.01 0.01 0.00 0.01 0.02 0.06 0.06 0.06 0.04 0.02 0.02 0.01 0.01 0.00 0.00 0.01 0.01 0.02 0.03 0.04 0.04 0.05 0.05 0.08 0.04 0.04 0.03 0.02 0.02 0.02 0.02 0.01 0.01 0.01 0.01 0.01 0.02 0.01 0.01 0.02 0.02 0.01 0.01 0.00
0.01 0.01 0.01 0.01 0.02 0.01 0.01 0.01 0.03 0.04 0.09 0.06 0.05 0.04 0.02 0.02 0.01 0.01 0.01 0.00 0.01 0.02 0.03 0.05 0.08 0.06 0.07 0.09 0.13 0.08 0.05 0.04 0.03 0.02 0.02 0.02 0.02 0.02 0.01 0.02 0.02 0.01 0.01 0.01 0.01 0.01 0.01 0.01 0.00
0.01 0.01 0.01 0.02 0.02 0.01 0.01 0.02 0.04 0.05 0.10 0.08 0.07 0.10 0.04 0.02 0.01 0.01 0.01 0.01 0.02 0.03 0.05 0.07 0.12 0.11 0.06 0.07 0.11 0.09 0.08 0.06 0.05 0.05 0.04 0.04 0.03 0.03 0.02 0.02 0.02 0.01 0.01 0.01 0.02 0.02 0.02 0.03 0.02
0.01 0.01 0.02 0.02 0.01 0.01 0.02 0.02 0.02 0.05 0.06 0.07 0.07 0.07 0.04 0.02 0.02 0.01 0.01 0.01 0.01 0.02 0.04 0.07 0.09 0.09 0.08 0.06 0.06 0.07 0.08 0.09 0.10 0.09 0.08 0.06 0.06 0.05 0.05 0.03 0.01 0.01 0.01 0.02 0.02 0.04 0.03 0.04 0.04
0.00 0.01 0.02 0.02 0.01 0.01 0.03 0.03 0.04 0.07 0.06 0.06 0.08 0.04 0.03 0.03 0.03 0.02 0.01 0.01 0.01 0.02 0.03 0.03 0.03 0.04 0.06 0.07 0.08 0.08 0.08 0.08 0.07 0.08 0.08 0.06 0.05 0.05 0.05 0.04 0.02 0.02 0.02 0.03 0.03 0.04 0.04 0.05 0.06
0.01 0.01 0.02 0.03 0.02 0.01 0.02 0.02 0.04 0.08 0.06 0.07 0.07 0.03 0.03 0.03 0.03 0.01 0.01 0.00 0.01 0.02 0.02 0.02 0.03 0.03 0.03 0.05 0.07 0.08 0.09 0.09 0.08 0.07 0.08 0.07 0.06 0.05 0.05 0.04 0.03 0.04 0.03 0.03 0.02 0.02 0.03 0.05 0.05
0.01 0.01 0.04 0.04 0.01 0.01 0.02 0.01 0.03 0.06 0.05 0.07 0.06 0.04 0.02 0.02 0.02 0.01 0.00 0.00 0.01 0.01 0.01 0.02 0.02 0.03 0.03 0.03 0.06 0.07 0.09 0.10 0.10 0.08 0.07 0.07 0.06 0.05 0.04 0.04 0.03 0.04 0.06 0.04 0.03 0.02 0.02 0.03 0.03
0.02 0.01 0.01 0.01 0.01 0.01 0.01 0.01 0.02 0.03 0.06 0.08 0.06 0.05 0.03 0.03 0.02 0.01 0.00 0.01 0.01 0.01 0.02 0.04 0.04 0.04 0.02 0.03 0.03 0.04 0.05 0.07 0.08 0.07 0.05 0.07 0.06 0.05 0.04 0.04 0.04 0.04 0.05 0.04 0.03 0.03 0.03 0.03 0.03
0.01 0.01 0.01 0.01 0.01 0.01 0.01 0.01 0.02 0.02 0.08 0.14 0.09 0.07 0.05 0.04 0.03 0.02 0.01 0.01 0.01 0.01 0.02 0.03 0.04 0.03 0.02 0.02 0.02 0.02 0.04 0.02 0.03 0.03 0.03 0.06 0.06 0.05 0.05 0.05 0.05 0.05 0.06 0.04 0.04 0.03 0.03 0.04 0.04
0.01 0.01 0.01 0.01 0.01 0.02 0.02 0.03 0.03 0.03 0.07 0.09 0.09 0.06 0.06 0.04 0.03 0.03 0.02 0.02 0.01 0.01 0.02 0.03 0.02 0.02 0.01 0.02 0.02 0.03 0.04 0.02 0.02 0.02 0.02 0.04 0.05 0.06 0.05 0.05 0.06 0.07 0.09 0.08 0.07 0.06 0.05 0.04 0.04
0.01 0.02 0.02 0.02 0.02 0.04 0.04 0.06 0.09 0.08 0.08 0.10 0.09 0.07 0.06 0.05 0.04 0.03 0.04 0.04 0.03 0.03 0.03 0.02 0.02 0.02 0.01 0.01 0.03 0.06 0.04 0.03 0.02 0.03 0.02 0.02 0.02 0.02 0.03 0.04 0.06 0.06 0.08 0.09 0.09 0.09 0.08 0.07 0.07
0.01 0.01 0.02 0.02 0.02 0.03 0.04 0.06 0.11 0.14 0.11 0.12 0.12 0.10 0.06 0.07 0.06 0.04 0.05 0.06 0.06 0.05 0.05 0.04 0.03 0.02 0.01 0.01 0.02 0.06 0.04 0.02 0.02 0.02 0.02 0.01 0.02 0.01 0.01 0.01 0.01 0.02 0.04 0.04 0.05 0.06 0.07 0.09 0.10
0.00 0.01 0.01 0.02 0.02 0.03 0.03 0.04 0.06 0.10 0.10 0.10 0.11 0.10 0.08 0.08 0.08 0.06 0.04 0.05 0.06 0.07 0.05 0.05 0.04 0.02 0.01 0.01 0.01 0.03 0.02 0.02 0.02 0.02 0.02 0.01 0.01 0.02 0.02 0.01 0.01 0.02 0.03 0.03 0.03 0.05 0.08 0.09 0.10
0.00 0.01 0.01 0.02 0.03 0.04 0.03 0.03 0.05 0.07 0.05 0.05 0.06 0.08 0.07 0.05 0.05 0.05 0.03 0.04 0.06 0.07 0.06 0.05 0.04 0.03 0.02 0.03 0.02 0.01 0.01 0.01 0.01 0.02 0.01 0.01 0.01 0.03 0.03 0.02 0.02 0.02 0.03 0.03 0.04 0.05 0.06 0.06 0.07
0.01 0.01 0.02 0.04 0.05 0.05 0.02 0.03 0.04 0.05 0.03 0.03 0.03 0.04 0.03 0.03 0.03 0.03 0.03 0.06 0.10 0.11 0.08 0.05 0.04 0.03 0.03 0.03 0.02 0.02 0.02 0.02 0.01 0.01 0.00 0.01 0.01 0.02 0.02 0.02 0.02 0.03 0.03 0.03 0.05 0.06 0.05 0.05 0.08
0.02 0.02 0.02 0.04 0.06 0.04 0.02 0.04 0.05 0.04 0.03 0.03 0.04 0.04 0.04 0.05 0.03 0.03 0.03 0.04 0.07 0.10 0.10 0.09 0.07 0.04 0.03 0.03 0.03 0.02 0.02 0.03 0.03 0.02 0.01 0.01 0.01 0.02 0.02 0.02 0.03 0.03 0.03 0.05 0.06 0.05 0.04 0.04 0.06
0.01 0.01 0.01 0.02 0.04 0.04 0.04 0.05 0.06 0.06 0.05 0.05 0.05 0.06 0.06 0.08 0.04 0.03 0.03 0.03 0.02 0.04 0.07 0.08 0.10 0.08 0.06 0.05 0.04 0.03 0.02 0.02 0.04 0.05 0.03 0.02 0.01 0.01 0.02 0.03 0.03 0.04 0.03 0.04 0.05 0.04 0.05 0.06 0.07
0.01 0.01 0.00 0.01 0.04 0.06 0.06 0.08 0.11 0.13 0.07 0.06 0.07 0.07 0.09 0.11 0.10 0.07 0.05 0.04 0.03 0.03 0.03 0.06 0.10 0.10 0.10 0.11 0.08 0.05 0.04 0.03 0.04 0.05 0.03 0.02 0.02 0.02 0.02 0.03 0.03 0.04 0.05 0.05 0.06 0.06 0.06 0.06 0.06
0.01 0.02 0.02 0.02 0.02 0.04 0.06 0.08 0.09 0.09 0.06 0.05 0.06 0.06 0.10 0.17 0.18 0.12 0.07 0.05 0.04 0.04 0.03 0.04 0.06 0.06 0.09 0.11 0.09 0.06 0.04 0.03 0.03 0.04 0.03 0.02 0.03 0.02 0.02 0.02 0.03 0.05 0.06 0.07 0.06 0.05 0.05 0.04 0.03
0.03 0.03 0.05 0.05 0.04 0.04 0.06 0.09 0.06 0.06 0.05 0.05 0.06 0.08 0.11 0.15 0.12 0.13 0.11 0.08 0.06 0.05 0.05 0.06 0.08 0.11 0.12 0.07 0.05 0.04 0.04 0.04 0.03 0.04 0.04 0.03 0.02 0.03 0.02 0.02 0.02 0.03 0.06 0.06 0.05 0.04 0.05 0.05 0.03
MSLP
1010.47 1011.65 1012.94 1014.12 1014.94 1015.23 1014.92 1014.04 1012.73 1011.21 1009.76 1008.57 1007.79 1007.44 1007.46 1007.71 1008.03 1008.25 1008.31 1008.18 1007.93 1007.68 1007.53 1007.57 1007.85 1008.32 1008.89 1009.46 1009.94 1010.26 1010.42 1010.48 1010.51 1010.60 1010.83 1011.19 1011.68 1012.22 1012.75 1013.19 1013.51 1013.70 1013.81 1013.87 1013.95 1014.07 1014.25 1014.46 1014.68
1011.07 1012.41 1013.75 1014.82 1015.43 1015.41 1014.74 1013.50 1011.88 1010.12 1008.50 1007.22 1006.39 1006.03 1006.06 1006.32 1006.67 1006.94 1007.06 1007.04 1006.95 1006.87 1006.91 1007.14 1007.59 1008.19 1008.87 1009.51 1010.04 1010.40 1010.61 1010.71 1010.79 1010.93 1011.17 1011.53 1011.98 1012.47 1012.92 1013.29 1013.56 1013.72 1013.83 1013.91 1014.02 1014.17 1014.36 1014.59 1014.80
1011.78 1013.20 1014.49 1015.39 1015.72 1015.38 1014.37 1012.83 1010.96 1009.04 1007.33 1006.01 1005.18 1004.82 1004.85 1005.12 1005.45 1005.73 1005.89 1005.95 1005.96 1006.03 1006.24 1006.64 1007.24 1007.96 1008.74 1009.45 1010.04 1010.47 1010.74 1010.90 1011.04 1011.22 1011.48 1011.82 1012.23 1012.65 1013.03 1013.34 1013.55 1013.70 1013.81 1013.93 1014.08 1014.27 1014.49 1014.72 1014.92
1012.52 1013.92 1015.07 1015.74 1015.77 1015.12 1013.83 1012.06 1010.06 1008.09 1006.38 1005.10 1004.32 1003.99 1004.02 1004.26 1004.56 1004.80 1004.96 1005.05 1005.13 1005.30 1005.63 1006.15 1006.86 1007.68 1008.52 1009.29 1009.94 1010.42 1010.75 1010.99 1011.20 1011.42 1011.70 1012.04 1012.41 1012.78 1013.10 1013.35 1013.54 1013.69 1013.82 1013.97 1014.16 1014.39 1014.64 1014.87 1015.07
1013.20 1014.47 1015.40 1015.79 1015.52 1014.60 1013.12 1011.24 1009.23 1007.32 1005.72 1004.56 1003.87 1003.60 1003.64 1003.83 1004.07 1004.25 1004.36 1004.44 1004.55 1004.77 1005.16 1005.75 1006.51 1007.37 1008.24 1009.04 1009.71 1010.24 1010.64 1010.94 1011.22 1011.51 1011.83 1012.18 1012.54 1012.88 1013.16 1013.39 1013.56 1013.72 1013.88 1014.07 1014.30 1014.55 1014.81 1015.04 1015.22
1013.71 1014.76 1015.40 1015.48 1014.95 1013.82 1012.23 1010.37 1008.46 1006.72 1005.33 1004.36 1003.81 1003.61 1003.65 1003.80 1003.96 1004.06 1004.11 1004.14 1004.24 1004.48 1004.89 1005.49 1006.25 1007.09 1007.94 1008.72 1009.39 1009.94 1010.38 1010.76 1011.12 1011.48 1011.86 1012.25 1012.62 1012.95 1013.23 1013.45 1013.63 1013.80 1013.99 1014.21 1014.47 1014.74 1014.99 1015.21 1015.36
1013.95 1014.72 1015.04 1014.82 1014.04 1012.79 1011.19 1009.44 1007.73 1006.25 1005.12 1004.38 1003.99 1003.88 1003.93 1004.03 1004.11 1004.12 1004.10 1004.10 1004.17 1004.40 1004.80 1005.38 1006.10 1006.88 1007.66 1008.38 1009.02 1009.56 1010.04 1010.48 1010.92 1011.36 1011.82 1012.26 1012.67 1013.02 1013.31 1013.53 1013.73 1013.92 1014.13 1014.38 1014.64 1014.91 1015.15 1015.34 1015.46
1013.91 1014.35 1014.34 1013.84 1012.88 1011.56 1010.03 1008.45 1007.01 1005.83 1004.98 1004.47 1004.24 1004.20 1004.26 1004.31 1004.32 1004.27 1004.20 1004.17 1004.24 1004.46 1004.85 1005.39 1006.05 1006.75 1007.44 1008.08 1008.66 1009.18 1009.67 1010.16 1010.67 1011.20 1011.73 1012.24 1012.69 1013.08 1013.39 1013.63 1013.84 1014.04 1014.27 1014.52 1014.79 1015.04 1015.26 1015.42 1015.51
1013.59 1013.72 1013.40 1012.66 1011.57 1010.24 1008.81 1007.45 1006.29 1005.40 1004.82 1004.51 1004.41 1004.42 1004.47 1004.48 1004.43 1004.34 1004.26 1004.24 1004.33 1004.58 1004.97 1005.49 1006.08 1006.70 1007.29 1007.85 1008.36 1008.85 1009.34 1009.86 1010.43 1011.03 1011.63 1012.19 1012.70 1013.11 1013.44 1013.70 1013.92 1014.14 1014.36 1014.61 1014.87 1015.11 1015.30 1015.43 1015.50
1013.07 1012.91 1012.33 1011.41 1010.23 1008.93 1007.64 1006.50 1005.58 1004.95 1004.58 1004.42 1004.40 1004.44 1004.46 1004.44 1004.36 1004.27 1004.20 1004.23 1004.38 1004.68 1005.10 1005.61 1006.16 1006.71 1007.23 1007.70 1008.15 1008.60 1009.09 1009.63 1010.24 1010.88 1011.53 1012.14 1012.67 1013.11 1013.46 1013.72 1013.95 1014.17 1014.39 1014.64 1014.88 1015.11 1015.28 1015.40 1015.45
1012.46 1012.06 1011.28 1010.23 1009.01 1007.77 1006.62 1005.66 1004.95 1004.51 1004.28 1004.21 1004.23 1004.25 1004.24 1004.19 1004.10 1004.03 1004.02 1004.13 1004.36 1004.72 1005.20 1005.72 1006.26 1006.77 1007.23 1007.64 1008.04 1008.46 1008.94 1009.48 1010.10 1010.77 1011.43 1012.06 1012.61 1013.06 1013.41 1013.68 1013.91 1014.12 1014.35 1014.59 1014.83 1015.05 1015.22 1015.33 1015.39
1011.88 1011.30 1010.38 1009.25 1008.04 1006.86 1005.83 1005.02 1004.46 1004.13 1003.98 1003.95 1003.95 1003.94 1003.90 1003.83 1003.75 1003.72 1003.79 1003.97 1004.30 1004.74 1005.26 1005.81 1006.35 1006.83 1007.26 1007.64 1008.01 1008.41 1008.87 1009.41 1010.02 1010.68 1011.34 1011.95 1012.49 1012.93 1013.28 1013.55 1013.79 1014.01 1014.24 1014.49 1014.73 1014.96 1015.14 1015.27 1015.35
1011.43 1010.73 1009.73 1008.57 1007.37 1006.27 1005.34 1004.63 1004.16 1003.89 1003.76 1003.71 1003.68 1003.64 1003.57 1003.49 1003.44 1003.46 1003.60 1003.86 1004.26 1004.76 1005.32 1005.89 1006.42 1006.90 1007.31 1007.68 1008.04 1008.42 1008.87 1009.39 1009.97 1010.60 1011.22 1011.80 1012.31 1012.73 1013.07 1013.35 1013.60 1013.84 1014.09 1014.36 1014.62 1014.87 1015.08 1015.23 1015.34
1011.18 1010.39 1009.36 1008.20 1007.05 1006.01 1005.15 1004.50 1004.07 1003.81 1003.67 1003.59 1003.52 1003.45 1003.38 1003.32 1003.31 1003.39 1003.58 1003.90 1004.33 1004.84 1005.40 1005.96 1006.48 1006.95 1007.35 1007.72 1008.08 1008.47 1008.90 1009.39 1009.93 1010.50 1011.06 1011.58 1012.05 1012.45 1012.79 1013.08 1013.36 1013.63 1013.92 1014.22 1014.51 1014.79 1015.03 1015.22 1015.36
1011.10 1010.28 1009.24 1008.11 1007.01 1006.02 1005.21 1004.60 1004.17 1003.89 1003.72 1003.60 1003.52 1003.45 1003.40 1003.38 1003.42 1003.55 1003.78 1004.11 1004.54 1005.02 1005.54 1006.06 1006.54 1006.99 1007.39 1007.77 1008.14 1008.53 1008.95 1009.40 1009.88 1010.38 1010.86 1011.32 1011.73 1012.10 1012.44 1012.76 1013.07 1013.40 1013.73 1014.08 1014.41 1014.73 1015.00 1015.22 1015.39
1011.15 1010.31 1009.29 1008.21 1007.16 1006.23 1005.46 1004.85 1004.40 1004.09 1003.88 1003.74 1003.65 1003.61 1003.60 1003.65 1003.76 1003.94 1004.19 1004.51 1004.89 1005.30 1005.74 1006.18 1006.61 1007.03 1007.43 1007.82 1008.21 1008.61 1009.01 1009.42 1009.84 1010.24 1010.64 1011.01 1011.37 1011.71 1012.05 1012.40 1012.76 1013.15 1013.54 1013.93 1014.31 1014.66 1014.96 1015.21 1015.41
1011.21 1010.38 1009.41 1008.40 1007.43 1006.56 1005.81 1005.19 1004.71 1004.35 1004.10 1003.94 1003.86 1003.85 1003.92 1004.05 1004.23 1004.46 1004.72 1005.01 1005.32 1005.64 1005.97 1006.32 1006.69 1007.07 1007.47 1007.88 1008.29 1008.70 1009.09 1009.46 1009.80 1010.12 1010.41 1010.70 1010.99 1011.30 1011.64 1012.02 1012.43 1012.87 1013.32 1013.77 1014.19 1014.57 1014.89 1015.17 1015.39
1011.18 1010.40 1009.51 1008.61 1007.74 1006.93 1006.21 1005.58 1005.05 1004.63 1004.31 1004.12 1004.04 1004.08 1004.22 1004.43 1004.69 1004.96 1005.24 1005.49 1005.73 1005.95 1006.19 1006.45 1006.76 1007.12 1007.52 1007.96 1008.40 1008.82 1009.21 1009.53 1009.80 1010.02 1010.21 1010.40 1010.62 1010.89 1011.22 1011.62 1012.08 1012.57 1013.07 1013.56 1014.01 1014.42 1014.76 1015.06 1015.31
1010.97 1010.29 1009.55 1008.80 1008.06 1007.35 1006.66 1006.01 1005.41 1004.90 1004.50 1004.24 1004.14 1004.20 1004.38 1004.66 1004.99 1005.32 1005.60 1005.84 1006.02 1006.17 1006.33 1006.52 1006.79 1007.14 1007.56 1008.03 1008.51 1008.95 1009.33 1009.62 1009.82 1009.95 1010.04 1010.14 1010.28 1010.50 1010.81 1011.22 1011.70 1012.23 1012.76 1013.28 1013.76 1014.18 1014.55 1014.87 1015.15
1010.54 1010.03 1009.50 1008.97 1008.41 1007.81 1007.18 1006.50 1005.82 1005.20 1004.67 1004.31 1004.13 1004.15 1004.35 1004.67 1005.04 1005.41 1005.72 1005.96 1006.11 1006.22 1006.33 1006.49 1006.75 1007.10 1007.55 1008.06 1008.58 1009.05 1009.44 1009.70 1009.84 1009.89 1009.89 1009.90 1009.97 1010.13 1010.41 1010.81 1011.30 1011.84 1012.39 1012.92 1013.41 1013.85 1014.24 1014.58 1014.89
1009.91 1009.64 1009.40 1009.14 1008.81 1008.37 1007.80 1007.11 1006.34 1005.56 1004.87 1004.34 1004.03 1003.96 1004.11 1004.42 1004.82 1005.22 1005.56 1005.80 1005.97 1006.07 1006.17 1006.33 1006.59 1006.97 1007.46 1008.01 1008.57 1009.07 1009.46 1009.70 1009.80 1009.80 1009.73 1009.66 1009.67 1009.78 1010.02 1010.39 1010.86 1011.39 1011.94 1012.47 1012.96 1013.41 1013.81 1014.17 1014.52
1009.14 1009.18 1009.28 1009.34 1009.29 1009.04 1008.56 1007.86 1006.98 1006.04 1005.14 1004.40 1003.91 1003.69 1003.73 1003.99 1004.36 1004.77 1005.14 1005.42 1005.60 1005.73 1005.85 1006.03 1006.31 1006.72 1007.24 1007.82 1008.41 1008.94 1009.34 1009.58 1009.66 1009.62 1009.51 1009.40 1009.35 1009.42 1009.62 1009.95 1010.39 1010.89 1011.42 1011.93 1012.41 1012.85 1013.26 1013.65 1014.04
1008.33 1008.72 1009.19 1009.60 1009.85 1009.81 1009.43 1008.73 1007.76 1006.64 1005.52 1004.56 1003.84 1003.42 1003.32 1003.47 1003.80 1004.19 1004.57 1004.88 1005.10 1005.26 1005.41 1005.61 1005.91 1006.33 1006.87 1007.47 1008.07 1008.61 1009.02 1009.27 1009.35 1009.30 1009.18 1009.06 1008.99 1009.02 1009.19 1009.49 1009.88 1010.35 1010.83 1011.31 1011.77 1012.20 1012.61 1013.02 1013.44
1007.59 1008.32 1009.15 1009.90 1010.43 1010.60 1010.34 1009.65 1008.60 1007.33 1006.02 1004.82 1003.87 1003.25 1002.97 1003.00 1003.24 1003.60 1003.97 1004.30 1004.55 1004.74 1004.91 1005.12 1005.43 1005.84 1006.36 1006.94 1007.54 1008.07 1008.49 1008.75 1008.85 1008.83 1008.73 1008.62 1008.56 1008.58 1008.73 1008.99 1009.35 1009.77 1010.20 1010.64 1011.07 1011.47 1011.88 1012.29 1012.73
1006.99 1008.01 1009.14 1010.18 1010.96 1011.32 1011.17 1010.51 1009.42 1008.04 1006.57 1005.18 1004.03 1003.22 1002.77 1002.67 1002.82 1003.12 1003.47 1003.79 1004.05 1004.26 1004.44 1004.64 1004.92 1005.29 1005.76 1006.30 1006.85 1007.36 1007.77 1008.05 1008.19 1008.21 1008.16 1008.09 1008.06 1008.10 1008.24 1008.48 1008.80 1009.17 1009.56 1009.95 1010.33 1010.71 1011.09 1011.50 1011.94
1006.58 1007.80 1009.14 1010.39 1011.35 1011.85 1011.80 1011.19 1010.10 1008.67 1007.10 1005.59 1004.30 1003.34 1002.76 1002.53 1002.59 1002.83 1003.14 1003.44 1003.70 1003.89 1004.06 1004.23 1004.45 1004.76 1005.15 1005.61 1006.10 1006.56 1006.95 1007.24 1007.41 1007.49 1007.50 1007.49 1007.51 1007.59 1007.74 1007.97 1008.26 1008.59 1008.94 1009.28 1009.62 1009.96 1010.31 1010.69 1011.11
1006.37 1007.68 1009.12 1010.47 1011.52 1012.11 1012.14 1011.59 1010.55 1009.13 1007.55 1006.00 1004.65 1003.61 1002.94 1002.62 1002.60 1002.76 1003.03 1003.30 1003.52 1003.69 1003.81 1003.93 1004.09 1004.31 1004.60 1004.97 1005.37 1005.77 1006.13 1006.42 1006.62 1006.75 1006.83 1006.89 1006.97 1007.09 1007.27 1007.50 1007.77 1008.07 1008.37 1008.67 1008.97 1009.26 1009.57 1009.92 1010.30
1006.36 1007.64 1009.06 1010.39 1011.45 1012.07 1012.15 1011.68 1010.72 1009.38 1007.87 1006.37 1005.04 1003.99 1003.28 1002.91 1002.82 1002.93 1003.13 1003.35 1003.53 1003.66 1003.73 1003.79 1003.87 1004.00 1004.20 1004.46 1004.77 1005.10 1005.41 1005.69 1005.91 1006.08 1006.22 1006.34 1006.48 1006.64 1006.85 1007.09 1007.35 1007.63 1007.90 1008.17 1008.42 1008.68 1008.94 1009.24 1009.56
1006.51 1007.68 1008.97 1010.19 1011.17 1011.77 1011.88 1011.49 1010.64 1009.45 1008.08 1006.70 1005.46 1004.47 1003.77 1003.37 1003.23 1003.28 1003.41 1003.57 1003.70 1003.77 1003.80 1003.80 1003.81 1003.86 1003.97 1004.14 1004.37 1004.63 1004.89 1005.14 1005.36 1005.55 1005.73 1005.90 1006.08 1006.29 1006.52 1006.77 1007.03 1007.30 1007.56 1007.80 1008.02 1008.24 1008.46 1008.70 1008.96
1006.82 1007.80 1008.90 1009.95 1010.81 1011.34 1011.46 1011.15 1010.44 1009.43 1008.25 1007.05 1005.95 1005.04 1004.38 1003.98 1003.79 1003.76 1003.82 1003.90 1003.96 1003.98 1003.96 1003.91 1003.87 1003.87 1003.92 1004.02 1004.17 1004.37 1004.58 1004.80 1005.00 1005.20 1005.40 1005.59 1005.80 1006.03 1006.28 1006.55 1006.81 1007.08 1007.33 1007.56 1007.76 1007.95 1008.12 1008.31 1008.51
Thickness
5820 5819 5817 5806 5784 5764 5762 5780 5797 5803 5808 5819 5823 5817 5806 5798 5788 5778 5800 5807 5803 5799 5796 5794 5792 5790 5788 5786 5784 5782 5781 5780 5778 5777 5776 5775 5773 5772 5772 5772 5771 5770 5769 5768 5767 5766 5766 5766 5765
5819 5818 5809 5793 5767 5747 5760 5786 5796 5807 5815 5822 5821 5817 5807 5801 5807 5802 5802 5804 5803 5799 5796 5794 5792 5789 5786 5784 5782 5781 5779 5778 5776 5775 5774 5773 5771 5770 5770 5769 5768 5768 5767 5766 5765 5764 5763 5763 5762
5819 5816 5795 5778 5762 5752 5766 5791 5802 5815 5824 5822 5815 5814 5807 5802 5807 5805 5806 5805 5801 5798 5796 5793 5790 5788 5785 5783 5781 5779 5777 5775 5774 5773 5772 5771 5770 5768 5768 5767 5766 5765 5764 5764 5763 5762 5761 5760 5760
5813 5800 5787 5768 5763 5774 5784 5798 5808 5810 5817 5821 5815 5805 5808 5817 5815 5811 5809 5806 5800 5797 5795 5792 5789 5786 5784 5781 5779 5777 5775 5773 5772 5771 5770 5768 5767 5766 5765 5765 5764 5763 5762 5761 5760 5759 5759 5758 5758
5806 5786 5768 5757 5767 5786 5800 5809 5813 5808 5809 5814 5813 5798 5797 5813 5818 5813 5809 5805 5800 5796 5794 5791 5788 5785 5782 5780 5777 5775 5773 5771 5770 5768 5767 5766 5765 5764 5763 5762 5761 5760 5759 5759 5757 5757 5756 5756 5756
5788 5775 5754 5750 5768 5789 5803 5812 5811 5806 5804 5809 5807 5796 5793 5809 5811 5808 5807 5804 5801 5797 5793 5789 5786 5783 5780 5778 5776 5774 5771 5769 5768 5766 5765 5763 5762 5761 5760 5759 5758 5758 5757 5756 5755 5755 5754 5754 5753
5779 5765 5755 5761 5768 5783 5802 5814 5809 5804 5802 5807 5810 5792 5791 5802 5808 5808 5806 5803 5799 5796 5791 5788 5784 5781 5778 5776 5774 5772 5769 5767 5765 5764 5762 5761 5760 5758 5758 5757 5756 5755 5754 5753 5753 5752 5752 5751 5751
5788 5768 5761 5763 5769 5780 5804 5812 5814 5810 5805 5816 5814 5793 5788 5800 5808 5806 5802 5798 5794 5792 5789 5786 5783 5780 5777 5774 5772 5770 5767 5765 5763 5762 5760 5759 5757 5756 5755 5754 5753 5752 5752 5751 5751 5750 5749 5749 5748
5794 5760 5751 5765 5773 5783 5802 5803 5810 5817 5812 5810 5813 5809 5809 5810 5806 5799 5793 5790 5788 5787 5785 5784 5781 5778 5776 5773 5770 5767 5765 5763 5761 5759 5758 5756 5755 5753 5752 5752 5751 5750 5750 5749 5749 5748 5748 5747 5746
5779 5754 5765 5785 5790 5791 5799 5801 5803 5801 5796 5795 5800 5806 5809 5805 5800 5793 5789 5785 5783 5782 5782 5781 5779 5776 5774 5771 5769 5765 5763 5761 5759 5757 5755 5754 5752 5751 5750 5749 5748 5748 5748 5747 5747 5746 5746 5745 5744
5780 5770 5783 5793 5800 5800 5798 5800 5804 5794 5785 5792 5794 5797 5800 5798 5794 5791 5789 5787 5785 5783 5781 5779 5777 5775 5772 5769 5766 5763 5761 5759 5757 5755 5753 5752 5750 5748 5747 5746 5745 5745 5745 5745 5744 5744 5743 5743 5742
5780 5785 5791 5795 5802 5799 5798 5799 5796 5795 5795 5805 5806 5804 5799 5794 5792 5791 5789 5787 5785 5781 5779 5777 5775 5772 5770 5768 5764 5761 5758 5756 5755 5754 5752 5750 5747 5745 5744 5743 5743 5742 5742 5742 5741 5741 5740 5740 5740
5777 5783 5793 5799 5799 5800 5800 5796 5794 5794 5803 5807 5806 5801 5796 5793 5792 5792 5792 5788 5784 5780 5777 5776 5773 5770 5768 5765 5762 5759 5757 5754 5753 5752 5751 5749 5746 5744 5742 5741 5740 5740 5739 5739 5738 5738 5737 5737 5737
5779 5784 5790 5794 5795 5798 5792 5792 5793 5794 5803 5801 5798 5794 5794 5793 5791 5789 5787 5784 5781 5779 5776 5774 5771 5768 5765 5762 5760 5757 5756 5753 5751 5750 5749 5748 5746 5743 5741 5739 5738 5737 5737 5736 5736 5735 5734 5734 5734
5782 5774 5777 5786 5790 5793 5789 5777 5786 5797 5800 5794 5792 5791 5792 5792 5791 5789 5788 5785 5782 5779 5776 5773 5770 5767 5763 5760 5758 5755 5754 5751 5749 5748 5747 5746 5744 5742 5740 5737 5736 5735 5735 5734 5733 5732 5731 5730 5730
5768 5759 5752 5774 5785 5790 5777 5759 5785 5798 5795 5788 5788 5789 5788 5788 5788 5789 5788 5785 5782 5778 5774 5771 5769 5764 5760 5758 5756 5753 5752 5749 5747 5745 5744 5743 5741 5739 5737 5735 5734 5733 5732 5731 5730 5728 5726 5725 5725
5745 5737 5743 5760 5781 5783 5773 5762 5782 5793 5790 5784 5784 5785 5785 5782 5783 5786 5786 5784 5780 5778 5774 5769 5766 5762 5758 5755 5753 5751 5749 5747 5745 5743 5741 5740 5738 5737 5736 5733 5732 5731 5730 5728 5727 5724 5723 5721 5721
5728 5734 5740 5748 5770 5773 5765 5764 5776 5785 5784 5781 5780 5780 5780 5778 5779 5783 5783 5782 5779 5776 5772 5767 5763 5759 5756 5752 5749 5746 5744 5743 5742 5740 5738 5737 5736 5735 5734 5731 5730 5729 5726 5724 5723 5721 5720 5718 5718
5742 5738 5736 5752 5771 5764 5758 5759 5767 5776 5776 5774 5774 5774 5775 5776 5779 5780 5780 5778 5775 5771 5768 5764 5760 5756 5753 5748 5744 5740 5738 5738 5737 5736 5735 5734 5733 5732 5731 5729 5727 5726 5723 5721 5720 5718 5716 5714 5714
5740 5732 5736 5750 5766 5760 5751 5753 5763 5769 5770 5772 5771 5770 5770 5771 5772 5772 5772 5771 5769 5767 5765 5761 5757 5753 5750 5747 5744 5740 5737 5735 5734 5733 5732 5731 5730 5728 5728 5726 5724 5722 5720 5717 5716 5714 5711 5710 5710
5736 5732 5735 5740 5752 5756 5747 5738 5749 5761 5767 5769 5771 5771 5770 5770 5769 5768 5767 5766 5764 5762 5761 5759 5755 5752 5748 5745 5741 5737 5732 5729 5727 5727 5726 5726 5725 5725 5724 5723 5721 5719 5717 5714 5713 5711 5708 5704 5704
5728 5747 5748 5746 5733 5725 5736 5712 5734 5747 5753 5760 5763 5765 5765 5768 5768 5767 5765 5763 5761 5760 5759 5755 5752 5749 5746 5743 5738 5732 5727 5723 5723 5722 5721 5721 5721 5721 5720 5719 5717 5715 5713 5711 5710 5708 5705 5702 5699
5742 5754 5749 5744 5731 5719 5723 5711 5720 5738 5741 5751 5757 5761 5764 5766 5766 5765 5764 5763 5761 5759 5755 5752 5748 5745 5743 5740 5735 5730 5725 5722 5721 5719 5717 5717 5717 5716 5715 5714 5712 5711 5709 5707 5706 5704 5702 5700 5697
5753 5746 5738 5728 5715 5699 5714 5708 5709 5728 5739 5748 5754 5758 5761 5763 5764 5763 5762 5760 5757 5754 5751 5748 5743 5740 5738 5736 5732 5728 5723 5720 5716 5714 5712 5711 5711 5710 5710 5709 5708 5706 5704 5703 5701 5700 5698 5696 5694
5740 5715 5693 5690 5684 5691 5715 5709 5712 5739 5749 5751 5752 5754 5758 5760 5758 5756 5754 5752 5750 5748 5746 5743 5738 5735 5734 5731 5728 5725 5722 5718 5714 5712 5709 5707 5705 5704 5704 5704 5702 5701 5700 5698 5697 5695 5692 5691 5689
5728 5714 5687 5676 5676 5687 5707 5702 5718 5743 5750 5752 5752 5751 5753 5753 5752 5751 5751 5749 5746 5743 5742 5739 5735 5731 5730 5727 5724 5722 5720 5716 5713 5710 5707 5705 5703 5702 5701 5699 5698 5697 5695 5693 5692 5689 5687 5685 5684
5722 5714 5714 5693 5688 5680 5690 5705 5723 5738 5740 5743 5743 5743 5744 5744 5745 5745 5745 5744 5742 5739 5737 5735 5731 5727 5725 5722 5720 5717 5715 5713 5710 5707 5705 5703 5701 5700 5698 5696 5694 5692 5690 5688 5686 5683 5681 5679 5677
5731 5721 5699 5686 5674 5671 5685 5695 5702 5717 5724 5731 5735 5736 5738 5740 5739 5739 5740 5738 5737 5736 5733 5730 5727 5723 5721 5717 5715 5713 5711 5709 5706 5704 5701 5699 5697 5696 5693 5691 5689 5687 5685 5683 5680 5677 5675 5673 5671
5718 5712 5700 5684 5681 5671 5667 5684 5720 5720 5725 5727 5731 5734 5736 5736 5735 5733 5735 5735 5733 5730 5727 5723 5720 5717 5714 5711 5710 5708 5706 5704 5702 5699 5697 5695 5693 5692 5689 5687 5685 5682 5680 5677 5674 5672 5670 5668 5666
5720 5711 5698 5680 5677 5677 5671 5684 5727 5725 5727 5727 5729 5732 5732 5732 5731 5729 5728 5728 5726 5723 5720 5718 5715 5712 5709 5707 5705 5703 5701 5699 5696 5695 5693 5691 5689 5687 5685 5683 5680 5678 5676 5673 5670 5667 5666 5663 5661